Home   Weather   Minas   Past weeks

Flag for Uruguay Past Weather in Minas, Uruguay — Yesterday and Last 2 Weeks

Now
55 °F

Clear.


Feels Like: 53 °F
Forecast: 50 / 67 °F
Wind: 8 mph from Northeast

Location: Capitan Corbeta

Current Time: May 23, 2017 at 2:06:47 am

Latest Report: May 23, 2017 at 1:00 am


Visibility: 10 mi

Pressure: 30.15 "Hg

Humidity: 94%

Dew Point: 54 °F

Location of MinasLocation

Past Weather in Minas — Graph

°F

Minas Temperature Yesterday

Maximum temperature yesterday: 68 °F (at 1:00 pm)
Minimum temperature yesterday: 50 °F (at 7:00 am)
Average temperature yesterday: 58 °F

High & Low Weather Summary for the Past Weeks

 TemperatureHumidityPressure
High70 °F (May 8, 1:00 pm)100% (May 8, 8:14 pm)30.27 "Hg (May 8, 8:14 pm)
Low43 °F (May 11, 4:00 am)59% (May 10, 10:00 am)29.71 "Hg (May 8, 2:00 pm)
Average59 °F85%29.97 "Hg
* Reported May 8 1:00 am — May 23 1:00 am, Minas. Weather by CustomWeather, © 2017

Note: Actual official high and low records may vary slightly from our data, if they occured in-between our weather recording intervals... More about our weather records

Advertising

Minas Weather History for the Previous 24 Hours

Scroll right to see more
 ConditionsComfort  
Time TempWeatherWind HumidityBarometerVisibility
1:00 am
Tue, May 23
55 °FClear.8 mph94%30.15 "Hg10 mi
12:00 am55 °FClear.7 mph94%30.15 "Hg10 mi
11:00 pm
Mon, May 22
55 °FClear.7 mph94%30.12 "Hg10 mi
10:00 pm57 °FClear.6 mph88%30.15 "Hg10 mi
9:00 pm57 °FClear.7 mph94%30.12 "Hg10 mi
8:00 pm57 °FClear.8 mph88%30.15 "Hg10 mi
7:00 pm59 °FClear.7 mph88%30.12 "Hg10 mi
6:00 pm63 °FClear.6 mph77%30.09 "Hg10 mi
5:00 pm64 °FSunny.8 mph73%30.07 "Hg10 mi
4:00 pm66 °FSunny.10 mph68%30.07 "Hg10 mi
3:00 pm68 °FSunny.7 mph64%30.07 "Hg10 mi
2:00 pm68 °FPassing clouds.7 mph64%30.07 "HgN/A
1:00 pm68 °FSunny.3 mph64%30.07 "Hg10 mi
12:00 pm66 °FPassing clouds.3 mph68%30.09 "HgN/A
11:00 am64 °FPassing clouds.5 mph73%30.09 "HgN/A
10:00 am59 °FSunny.5 mph82%30.09 "Hg10 mi
9:00 am54 °FSunny.8 mph88%30.07 "Hg10 mi
8:00 am50 °FSunny.8 mph88%30.01 "Hg10 mi
7:00 am50 °FClear.8 mph88%29.98 "Hg10 mi
6:00 am52 °FClear.8 mph88%29.98 "Hg10 mi
4:00 am52 °FClear.8 mph82%29.95 "Hg10 mi
3:00 am52 °FClear.7 mph88%29.95 "Hg10 mi
2:00 am54 °FClear.8 mph77%29.95 "Hg10 mi
Weather by CustomWeather, © 2017

See weather overviewHow to use our weather pages